Location: Krasnoyarskiy Pitomnik
(51.1333°N, 71.6167°E)
Time: 14:03:36
(UTC+00:00)

Cosmos 1833 Rocket - Pass Details

Date: 22 October 2021
Orbit: 832 x 840 km, 71.0° (Epoch: 26 November)

Event Time Altitude Azimuth Distance (km) Brightness Sun altitude
Exits shadow 22:41:41 33° 351° (N) 1,371 3.8 -29.9°
Drops below altitude 10° 22:45:18 10° 21° (NNE) 2,456 5.6 -29.4°
Sets 22:47:54 0° 29° (NNE) 3,395 6.5 -29.0°
